Location: Boleita
(10.4833°N, 66.8167°W)
Time: 01:20:23
(UTC+00:00)

CZ-3 R/B - Pass Details

Date: 08 November 2025
Orbit: 547 x 10009 km, 28.3° (Epoch: 08 December)

Event Time Altitude Azimuth Distance (km) Brightness Sun altitude
Rises 07:59:10 0° 250° (WSW) 13,015 6.8 -34.4°
Enters shadow 08:04:27 - 251° (WSW) 12,076 6.6 -33.1°
Exits shadow 08:32:24 32° 268° (W) 5,398 4.7 -26.4°
Maximum altitude 08:42:55 54° 328° (NNW) 2,647 3.4 -23.9°
Drops below altitude 10° 08:50:52 10° 46° (NE) 3,173 4.6 -22.0°
Sets 08:52:46 0° 52° (NE) 3,757 5.1 -21.6°
